Wind_Speed
14 15 15 21 22 22 19 17 17 17 18 18 19 20 20 22 23 21 19 17 19 16
15 10 11 14 18 19 20 18 16 15 14 16 16 16 19 19 21 21 21 19 17 16
20 15 11 16 19 21 20 20 18 16 15 13 12 12 13 14 16 16 15 17 17 15
20 20 19 21 20 19 15 13 16 18 17 16 16 15 14 13 14 15 16 15 16 15
14 17 21 24 22 20 19 19 19 20 23 22 21 22 22 20 18 18 17 15 15 14
13 15 18 21 24 22 21 21 22 22 20 21 20 19 18 17 17 16 15 16 15 14
10 12 11 14 16 21 27 23 20 20 20 20 18 17 16 17 17 17 16 16 15 15
8 8 8 10 13 16 17 18 17 17 22 22 22 20 18 18 20 19 20 19 18 17
8 8 8 8 8 9 11 10 12 14 16 19 19 18 17 17 18 19 19 20 19 16
12 12 11 9 9 8 9 11 13 15 17 17 16 16 18 20 18 18 18 18 16 13
12 13 12 12 11 10 9 10 11 11 11 11 11 11 13 14 15 13 13 13 13 15
11 13 15 14 12 10 10 10 10 9 9 9 8 8 9 10 10 10 9 9 11 11
10 12 14 14 15 14 14 16 17 16 13 11 13 11 11 11 14 16 14 11 12 10
12 12 13 13 13 17 15 18 20 20 18 15 15 15 13 12 12 13 12 9 8 7
Wind_Direction
157 179 173 181 176 181 187 186 181 188 186 191 197 195 195 199 199 199 195 192 199 201
181 172 177 183 186 186 186 181 184 187 187 184 197 201 201 204 202 204 204 204 201 194
197 187 166 178 186 188 186 184 185 183 184 187 190 194 199 195 200 199 196 198 188 180
210 206 195 174 166 168 170 179 190 185 182 180 182 181 183 187 187 187 187 188 190 189
202 204 198 185 180 184 184 179 174 174 174 175 180 175 183 185 187 193 191 187 190 192
183 192 189 195 193 187 180 176 175 180 182 183 184 186 184 184 189 193 198 188 192 197
185 181 182 189 198 208 200 197 195 190 190 193 194 196 201 201 200 199 206 216 217 226
176 179 181 181 192 194 192 198 204 214 217 222 224 226 225 220 216 216 220 225 229 231
139 156 163 181 193 198 191 204 209 214 218 216 219 213 215 215 218 225 224 227 224 223
118 119 124 138 151 169 188 198 207 211 215 213 217 225 223 224 230 226 228 230 217 212
119 116 113 113 115 124 142 158 167 178 191 200 205 207 210 216 224 224 210 199 200 205
110 117 118 115 114 115 127 133 136 146 157 169 157 165 167 169 156 153 157 168 184 195
104 108 112 114 112 123 124 120 118 113 112 118 118 122 127 139 145 144 149 161 170 174
98 103 105 121 126 114 123 118 113 111 112 118 120 120 122 131 139 140 141 142 154 166
Height
743 747 748 750 751 761 767 771 775 781 782 787 792 795 798 802 805 809 812 816 819 822
742 742 742 747 754 760 766 769 773 778 781 786 791 793 797 801 804 807 811 814 817 820
737 741 743 750 754 759 764 766 769 773 778 783 788 793 797 801 804 807 811 814 817 819
735 739 745 750 754 758 762 763 767 769 775 780 786 791 796 801 804 808 811 813 816 818
736 739 743 748 751 755 761 765 766 772 774 781 787 788 792 798 803 806 809 811 814 817
738 741 743 746 749 754 758 763 766 770 776 780 784 788 790 793 799 804 808 808 811 815
737 739 742 745 748 753 756 762 767 769 775 780 784 787 790 792 796 798 801 806 809 811
738 740 741 744 749 752 755 758 763 766 770 775 778 781 785 789 791 792 797 800 804 806
738 741 742 746 747 751 753 756 761 765 768 772 775 777 781 785 788 790 792 797 800 803
741 740 744 747 749 752 755 757 759 763 767 770 774 776 779 783 786 786 789 793 796 800
745 745 747 749 750 753 756 759 760 763 766 770 773 775 779 781 783 785 787 792 796 800
749 750 749 752 751 755 759 760 760 764 766 771 773 776 778 780 782 786 790 793 797 801
752 750 751 755 754 762 765 765 763 767 768 773 774 777 780 783 785 787 792 795 799 799
751 752 751 759 762 755 768 766 764 767 770 777 780 780 783 787 789 789 793 798 799 799